    Orbital elements:
    1999 XL136                                          PHA, Earth MOID = 0.0039 AU
    Epoch 2012 Sept. 30.0 TT = JDT 2456200.5                MPC
    M  59.37947              (2000.0)            P               Q
    n   0.40214943     Peri.  274.98706     -0.98348376     +0.09374054
    a   1.8177929      Node   270.45211     -0.02552341     -0.91871265
    e   0.6474758      Incl.    8.90723     -0.17918776     -0.38364016
    P   2.45           H   19.6           G   0.15           U   1
    Residuals in seconds of arc
    991212 704  0.0   0.1+    991217 046  0.4+  0.8+    000109 704  0.0   0.4-
    991212 704  0.3-  0.4-    991217 046  0.6-  0.7+    000109 704  0.1+  0.1-
    991212 704  0.1-  0.2-    991217 046  0.4-  0.4+    000109 704  0.1-  0.5-
    991212 704  0.3-  0.3-    991225 402  0.5+  0.4-    000109 704  0.2+  0.5-
    991212 704  0.4-  0.3-    991225 402  0.8+  0.2-    120708 E12  0.2-  0.3-
    991213 719  0.1-  0.3-    991225 402  0.4+  0.0     120708 E12  0.1-  0.1-
    991213 704  0.2-  0.0     991227 900  1.4-  0.1-    120708 E12  0.1+  0.2-
    991213 719  0.0   0.6-    991227 900  0.6-  0.1+    120708 E12  0.1-  0.4-
    991213 704  0.2-  0.0     991228 739  1.1-  0.3-    120708 E12  0.2+  0.0
    991213 704  0.3-  0.1-    991228 739 (2.1-  0.6-)   120708 E12  0.0   0.0
    991213 719  0.9+  0.2-    991228 739  1.0+  0.4+    120708 E12  0.3+  0.2-
    991213 678  1.0-  0.4-    991229 360  0.0   0.0     120708 E12  0.4+  0.6-
    991213 719  0.0   0.7-    991229 360  0.2+  0.1-    120708 104  0.0   0.2+
    991213 704  0.1+  0.4-    991229 360  0.5+  0.2+    120708 104  0.2-  0.2+
    991213 678  1.1+  0.5+    991229 046  0.5+  0.0     120708 595  0.3-  0.3+
    991213 678  0.3+  0.4+    991229 046  0.1-  0.2+    120708 104  0.1+  0.2+
    991213 678  0.4+  1.0-    991229 046  0.0   0.4-    120708 595  0.1-  0.1+
    991213 678  1.0+  0.4+    991229 046  0.5+  0.6+    120708 I93  0.3-  0.3+
    991213 704  0.2-  0.0     991229 046  0.0   0.1+    120708 I89  0.2+  0.1+
    991213 670  0.6-  1.2-    991230 413  0.1-  0.1+    120708 C43  0.7-  0.1-
    991213 670 (2.1+  0.2+)   991230 413  0.0   0.2+    120708 I89  0.3+  0.2+
    991213 557  0.1+  0.1-    991230 587  0.2-  0.3+    120708 C43  0.2-  0.6+
    991213 557  0.9-  0.1-    991230 587  0.1-  0.3+    120708 C43  0.7-  0.6+
    991213 557  0.2-  0.3-    000102 046  1.2+  0.8+    120708 I93  0.2-  0.3+
    991214 704  0.2-  0.3+    000102 046  0.2+  0.2-    120708 C43  0.0   0.5+
    991214 704  0.3-  0.3+    000102 046  0.2+  0.4+    120708 C43  0.2-  0.4+
    991214 704  0.7-  0.2-    000102 046  0.4-  0.4+    120708 C43  0.1+  0.5+
    991214 704  1.0+  0.3-    000103 670  1.1-  1.0+    120708 C43  0.1-  0.3+
    991214 704  0.0   0.6-    000103 670  0.8+  0.7+    120708 C43  0.4+  0.2+
    991215 557  0.8+  0.5+    000103 587  0.2+  0.5+    120708 C43  0.1+  0.4+
    991215 557  0.2+  0.2+    000103 587  0.1+  0.1+    120708 C43  0.1-  0.6+
    991215 557  1.2+  0.5+    000103 587  0.5+  0.3+    120708 C43  0.3+  0.5+
    991215 704  0.0   0.8+    000103 118  0.3-  0.3+    120708 C43  0.0   0.4+
    991215 704  0.2-  0.1-    000103 118  0.1+  0.1+    120708 C43  0.8-  1.2+
    991215 704  0.2-  0.0     000103 118 (1.6-  3.0-)   120708 C43  0.9-  1.2-
    991215 704  0.4-  0.3+    000105 726  0.0   1.2-    120708 I93  0.0   0.3+
    991215 704  0.1+  0.3+    000105 726  0.1+  1.3+    120708 I76  0.1-  0.2+
    991215 704  0.6-  0.2+    000105 726  1.5-  0.6-    120708 I76  0.0   0.3+
    991215 704  0.0   0.4+    000105 704  0.2+  0.3-    120708 I76  0.2+  0.1-
    991215 704  0.3+  0.4+    000105 726 (2.5+  1.0+)   120708 I76  0.1-  0.2+
    991215 704  0.2-  0.1+    000105 704  0.6+  0.5-    120708 I76  0.0   0.3+
    991215 670 (2.6-  1.8+)   000105 704  0.7+  0.3+    120708 I76  0.3-  0.2+
    991215 670  0.1+  1.8-    000105 704  0.3+  0.7-    120708 204  0.1+  0.3+
    991216 704  0.3-  0.2-    000105 704  0.5+  0.7-    120708 204  0.1+  0.2+
    991216 704  0.4-  0.2+    000105 118  0.2+  0.6+    120708 204  0.1-  0.1+
    991216 704  0.2-  0.3+    000105 118  0.3-  0.6+    120708 958  0.0   0.0
    991216 704  0.3-  0.3+    000106 704  1.4-  0.4-    120708 958  0.2+  0.3+
    991216 704  0.2-  0.1+    000106 704  0.2-  0.2+    120708 958  0.3-  0.6-
    991216 402  0.3-  1.0-    000106 704  0.9-  0.1-    120708 958  0.2+  0.2+
    991216 402  1.4-  1.3+    000106 704  0.5+  0.1-    120709 958  0.1+  0.1+
    991216 402  0.2+  0.9-    000106 704  0.1+  0.9-
    991217 046  0.0   0.7+    000109 704  0.3+  0.5-
    
    Ephemeris:
    1999 XL136               a,e,i = 1.82, 0.65, 9                   q = 0.6408
    Date    TT    R. A. (2000) Decl.     Delta      r     Elong.  Phase     V
    2012 06 09    06 26 07.8 +11 03 45   0.1707  0.8590    21.8   154.0    24.7
    ...
    2012 06 24    13 11 38.5 +17 23 00   0.01176 1.0178    96.1    83.2    12.9
    ...
    2012 07 02    17 46 40.8 -07 01 21   0.09365 1.1044   158.7    19.5    15.7
    ...
    2012 07 08    17 58 42.3 -08 17 53   0.1628  1.1691   157.8    19.2    17.0
    2012 07 09    17 59 53.1 -08 26 12   0.1746  1.1798   157.4    19.3    17.1
    2012 07 10    18 00 57.2 -08 33 56   0.1864  1.1905   157.0    19.5    17.3
    ...
    2012 07 16    18 05 58.6 -09 12 53   0.2589  1.2540   153.9    20.9    18.2
    ...
    2012 07 24    18 11 22.8 -09 55 43   0.3604  1.3371   148.8    23.2    19.1
    ...
    2012 08 08    18 22 11.3 -11 04 06   0.5676  1.4867   138.4    26.9    20.4
    
    A. U. Tomatic                (C) Copyright 2012 MPC           M.P.E.C. 2012-N11
    

    Read MPEC 2012-N10 Read MPEC 2012-N12


    MPEC number:

    Enter an MPEC number in one of the following forms:

    • 1997-B01 (the full form)
    • J97B01 (the packed version of the full form)
    • B01 (the abbreviated form)